EW8784 Weather Reports


time (UTC)temp
C
wind
direction
speed
KPH
gust
KPH
rain 1hr
cm
rain 24hr
cm
rain mn
cm
humidity
%
barometer
mb
20260510204505 18 6 0.0 0.0 0.00 0.00 0.00 100 1024.6
20260510203009 18 6 0.0 0.0 0.00 0.00 0.00 100 1024.3
20260510200007 18 357 0.0 0.0 0.00 0.00 0.00 100 1024.1
20260510194505 18 353 3.2 4.8 0.00 0.00 0.00 100 1024.1
20260510191505 18 89 1.6 4.8 0.00 0.00 0.00 100 1023.8
20260510190006 17 350 3.2 6.4 0.00 0.00 0.00 100 1023.7
20260510184504 17 101 0.0 0.0 0.00 0.00 0.00 100 1023.7
20260510183007 17 141 0.0 0.0 0.00 0.00 0.00 100 1023.7
20260510181504 17 141 0.0 0.0 0.00 0.00 0.00 100 1023.6
20260510180006 18 141 0.0 0.0 0.00 0.00 0.00 100 1023.6
20260510174503 18 141 0.0 0.0 0.00 0.00 0.00 100 1023.7
20260510173007 18 141 0.0 0.0 0.00 0.00 0.00 100 1023.7
20260510171504 18 141 0.0 0.0 0.00 0.00 0.00 100 1023.7
20260510170006 18 141 0.0 0.0 0.00 0.00 0.00 100 1023.8
20260510164503 18 141 0.0 0.0 0.00 0.00 0.00 100 1023.8
20260510163007 18 141 0.0 0.0 0.00 0.00 0.00 100 1023.9
20260510161505 18 141 0.0 0.0 0.00 0.00 0.00 100 1023.9
20260510160007 18 141 0.0 0.0 0.00 0.00 0.00 100 1024.1
20260510154504 18 141 0.0 0.0 0.00 0.00 0.00 100 1024.0
20260510151505 18 142 0.0 0.0 0.00 0.00 0.00 100 1024.2
20260510150007 18 111 0.0 1.6 0.00 0.00 0.00 100 1024.3
20260510144504 18 121 1.6 3.2 0.00 0.00 0.00 100 1024.3
20260510140006 18 330 0.0 3.2 0.00 0.00 0.00 100 1024.6
20260510134503 19 332 1.6 4.8 0.00 0.00 0.00 100 1024.6
20260510133007 19 356 0.0 3.2 0.00 0.00 0.00 100 1024.7
20260510131505 19 359 0.0 1.6 0.00 0.00 0.00 100 1024.7
20260510130006 19 356 8.0 11.3 0.00 0.00 0.00 100 1024.6
20260510124503 19 7 3.2 9.7 0.00 0.00 0.00 100 1024.5
20260510123008 19 359 0.0 0.0 0.00 0.00 0.00 100 1024.5
20260510121504 19 359 1.6 6.4 0.00 0.00 0.00 94 1024.5
20260510120007 19 359 0.0 0.0 0.00 0.00 0.00 90 1024.3
20260510114504 19 354 1.6 4.8 0.00 0.00 0.00 87 1024.2
20260510113007 19 346 0.0 4.8 0.00 0.00 0.00 91 1024.2
20260510111505 19 342 1.6 6.4 0.00 0.00 0.00 96 1024.2
20260510103005 20 359 0.0 1.6 0.00 0.00 0.00 69 1023.9
20260510101508 20 105 6.4 14.5 0.00 0.00 0.00 64 1023.7
20260510100004 20 179 0.0 0.0 0.00 0.00 0.00 65 1023.5
20260510094507 20 179 0.0 0.0 0.00 0.00 0.00 61 1023.3
20260510090008 21 179 0.0 0.0 0.00 0.00 0.00 48 1022.8
20260510084506 22 179 0.0 0.0 0.00 0.00 0.00 46 1022.7
20260510083004 22 179 0.0 0.0 0.00 0.00 0.00 46 1022.7
20260510081507 22 179 0.0 0.0 0.00 0.00 0.00 44 1022.6
20260510074506 22 179 0.0 0.0 0.00 0.00 0.00 44 1022.5
20260510071506 23 179 0.0 0.0 0.00 0.00 0.00 44 1022.6
20260510070008 23 179 0.0 0.0 0.00 0.00 0.00 48 1022.5
20260510061504 24 179 0.0 0.0 0.00 0.00 0.00 43 1022.6
20260510060006 24 359 0.0 0.0 0.00 0.00 0.00 42 1022.5
20260510054509 25 359 0.0 3.2 0.00 0.00 0.00 40 1022.6
20260510053007 25 155 3.2 12.9 0.00 0.00 0.00 40 1022.7
20260510051505 25 162 0.0 3.2 0.00 0.00 0.00 42 1022.9
20260510050040 25 177 0.0 0.0 0.00 0.00 0.00 38 1022.9
20260510044504 25 359 0.0 0.0 0.00 0.00 0.00 34 1023.1
20260510043007 25 359 0.0 0.0 0.00 0.00 0.00 31 1023.2
20260510041505 25 359 0.0 0.0 0.00 0.00 0.00 27 1023.3
20260510040008 26 359 0.0 0.0 0.00 0.00 0.00 24 1023.4
20260510034505 26 359 0.0 0.0 0.00 0.00 0.00 21 1023.4
20260510033008 25 359 0.0 0.0 0.00 0.00 0.00 20 1023.5
20260510031505 25 359 0.0 0.0 0.00 0.00 0.00 20 1023.6
20260510030009 25 359 0.0 0.0 0.00 0.00 0.00 22 1023.7
20260510024504 25 359 0.0 0.0 0.00 0.00 0.00 22 1024.1
20260510023008 24 359 0.0 0.0 0.00 0.00 0.00 19 1024.2
20260510021505 23 359 0.0 0.0 0.00 0.00 0.00 19 1024.5
20260510020003 23 359 0.0 0.0 0.00 0.00 0.00 17 1024.7
20260510013007 23 359 0.0 0.0 0.00 0.00 0.00 16 1025.0
20260510010005 22 359 0.0 0.0 0.00 0.00 0.00 22 1025.0
20260510003004 22 359 0.0 0.0 0.00 0.00 0.00 27 1025.2
20260510001507 21 359 0.0 0.0 0.00 0.00 0.00 28 1025.2
20260510000004 21 359 0.0 0.0 0.00 0.00 0.00 27 1025.2
20260509233003 20 359 0.0 0.0 0.00 0.00 0.00 30 1025.3
20260509231506 19 359 0.0 0.0 0.00 0.00 0.00 34 1025.2
20260509224505 19 359 0.0 0.0 0.00 0.00 0.00 38 1025.0
20260509223003 18 359 0.0 0.0 0.00 0.00 0.00 37 1025.0
20260509221506 18 359 0.0 0.0 0.00 0.00 0.00 38 1025.0
20260509220004 18 359 0.0 0.0 0.00 0.00 0.00 39 1025.0
20260509214505 17 359 0.0 0.0 0.00 0.00 0.00 36 1024.9
20260509213003 16 359 0.0 0.0 0.00 0.00 0.00 39 1024.7
20260509210004 14 359 0.0 0.0 0.00 0.00 0.00 49 1024.3